TimeCST,TemperatureF,Dew PointF,Humidity,Sea Level PressureIn,VisibilityMPH,Wind Direction,Wind SpeedMPH,Gust SpeedMPH,PrecipitationIn,Events,Conditions,WindDirDegrees,DateUTC
12:52 AM,30.9,28.0,89,30.42,8.0,NW,5.8,-,N/A,,Clear,320,2012-11-16 06:52:00
1:52 AM,30.0,27.0,88,30.42,7.0,NW,4.6,-,N/A,,Clear,320,2012-11-16 07:52:00
2:52 AM,28.9,26.1,89,30.42,7.0,NW,6.9,-,N/A,,Clear,310,2012-11-16 08:52:00
3:52 AM,28.0,26.1,92,30.43,6.0,NW,3.5,-,N/A,,Clear,310,2012-11-16 09:52:00
4:52 AM,28.9,27.0,92,30.43,5.0,NW,4.6,-,N/A,,Clear,320,2012-11-16 10:52:00
5:52 AM,28.0,25.0,88,30.44,5.0,Calm,Calm,-,N/A,,Clear,0,2012-11-16 11:52:00
6:32 AM,26.6,24.8,93,30.42,1.8,Calm,Calm,-,N/A,,Clear,0,2012-11-16 12:32:00
6:35 AM,26.6,24.8,93,30.42,1.0,Calm,Calm,-,N/A,,Mist,0,2012-11-16 12:35:00
6:37 AM,26.6,24.8,93,30.42,0.8,Calm,Calm,-,N/A,,Mist,0,2012-11-16 12:37:00
6:42 AM,26.6,24.8,93,30.42,0.2,Calm,Calm,-,N/A,Fog,Light Freezing Fog,0,2012-11-16 12:42:00
6:52 AM,27.0,25.0,92,30.45,0.2,Calm,Calm,-,N/A,Fog,Light Freezing Fog,0,2012-11-16 12:52:00
7:21 AM,26.6,24.8,93,30.44,0.8,Calm,Calm,-,N/A,,Mist,0,2012-11-16 13:21:00
7:23 AM,26.6,24.8,93,30.44,1.2,Calm,Calm,-,N/A,,Scattered Clouds,0,2012-11-16 13:23:00
7:45 AM,28.4,26.6,93,30.44,2.5,Calm,Calm,-,N/A,,Scattered Clouds,0,2012-11-16 13:45:00
7:52 AM,30.0,27.0,88,30.47,3.0,Calm,Calm,-,N/A,,Scattered Clouds,0,2012-11-16 13:52:00
8:52 AM,37.0,34.0,89,30.48,6.0,Calm,Calm,-,N/A,,Clear,0,2012-11-16 14:52:00
9:52 AM,45.0,36.0,71,30.48,8.0,Calm,Calm,-,N/A,,Clear,0,2012-11-16 15:52:00
10:52 AM,48.9,36.0,61,30.48,8.0,SSE,5.8,-,N/A,,Clear,150,2012-11-16 16:52:00
11:52 AM,54.0,37.0,53,30.45,8.0,Calm,Calm,-,N/A,,Clear,0,2012-11-16 17:52:00
12:52 PM,57.0,37.9,49,30.42,8.0,SE,5.8,-,N/A,,Clear,130,2012-11-16 18:52:00
1:52 PM,60.1,35.1,39,30.40,9.0,SE,9.2,-,N/A,,Clear,130,2012-11-16 19:52:00
2:52 PM,61.0,35.1,38,30.38,10.0,ESE,6.9,-,N/A,,Clear,120,2012-11-16 20:52:00
3:52 PM,60.1,35.1,39,30.38,10.0,SE,9.2,-,N/A,,Clear,130,2012-11-16 21:52:00
4:52 PM,55.0,34.0,45,30.37,10.0,SE,8.1,-,N/A,,Clear,130,2012-11-16 22:52:00
5:52 PM,48.9,34.0,56,30.38,8.0,SSE,5.8,-,N/A,,Clear,150,2012-11-16 23:52:00
6:52 PM,45.0,33.1,63,30.38,10.0,ESE,5.8,-,N/A,,Clear,120,2012-11-17 00:52:00
7:52 PM,39.0,32.0,76,30.39,9.0,SE,3.5,-,N/A,,Clear,140,2012-11-17 01:52:00
8:52 PM,39.0,32.0,76,30.39,9.0,ESE,4.6,-,N/A,,Clear,110,2012-11-17 02:52:00
9:52 PM,37.0,30.9,79,30.39,8.0,ESE,3.5,-,N/A,,Clear,120,2012-11-17 03:52:00
10:52 PM,37.9,32.0,79,30.38,8.0,ESE,8.1,-,N/A,,Clear,110,2012-11-17 04:52:00
11:52 PM,36.0,32.0,86,30.38,9.0,East,4.6,-,N/A,,Clear,100,2012-11-17 05:52:00